Powrót do katalogu

FENGYUN 1C DEB

LostPO
NORAD 35164·DEBRIS·🇨🇳 China

Wystrzelony May 10, 1999 z Taiyuan Satellite Launch Center

Loading…

Następne Przeloty (najbliższe 24 godziny)

TLE

NieaktualneSource: Space-Track

Epoka: Sep 4, 2024, 08:07 UTC

1 35164U 99025DMU 24248.33836170  .00008180  00000-0  59242-2 0  9996
2 35164  98.5772  85.4320 0202150  46.6106 315.1691 13.87422368565640

Śledź FENGYUN 1C DEB w czasie rzeczywistym z AllMySat

Download on the App Store